This is the latest recevied weather packets stored in our database for station/object KQ7A. If no packets are shown the sender has not sent any weather packets the latest 10 day(s).
| Time | Temp. | Humidity | Pressure | Rain* | Wind** | Luminosity | Snow |
|---|---|---|---|---|---|---|---|
| 1778169044 | 15.56° C | 55% | 1022.2 hPa | 0 mm | - | 436 W/m² | - |
| 1778168741 | 15° C | 63% | 1022.1 hPa | 0 mm | - | 405 W/m² | - |
| 1778168438 | 15° C | 61% | 1022.1 hPa | 0 mm | - | 390 W/m² | - |
| 1778168134 | 15° C | 60% | 1022.1 hPa | 0 mm | - | 365 W/m² | - |
| 1778167831 | 15° C | 65% | 1021.9 hPa | 0 mm | - | 328 W/m² | - |
| 1778167526 | 14.44° C | 62% | 1021.9 hPa | 0 mm | - | 309 W/m² | - |
| 1778167223 | 13.89° C | 65% | 1022 hPa | 0 mm | - | 296 W/m² | - |
| 1778166919 | 13.89° C | 66% | 1022.1 hPa | 0 mm | - | 281 W/m² | - |
| 1778166616 | 13.33° C | 62% | 1022.2 hPa | 0 mm | - | 262 W/m² | - |
| 1778166313 | 13.33° C | 63% | 1022.1 hPa | 0 mm | - | 252 W/m² | - |
| 1778166010 | 13.33° C | 64% | 1022.1 hPa | 0 mm | - | 232 W/m² | - |
| 1778165705 | 13.33° C | 59% | 1022.1 hPa | 0 mm | - | 219 W/m² | - |
| 1778165403 | 13.33° C | 64% | 1022.3 hPa | 0 mm | - | 214 W/m² | - |
| 1778165099 | 12.78° C | 70% | 1022.2 hPa | 0 mm | - | 190 W/m² | - |
| 1778164797 | 12.22° C | 68% | 1022.3 hPa | 0 mm | - | 135 W/m² | - |
| 1778164494 | 11.67° C | 67% | 1022.6 hPa | 0 mm | - | 108 W/m² | - |
| 1778164190 | 11.67° C | 68% | 1022.3 hPa | 0 mm | - | 102 W/m² | - |
| 1778163886 | 11.67° C | 69% | 1022.3 hPa | 0 mm | - | 98 W/m² | - |
| 1778163584 | 11.67° C | 69% | 1022.2 hPa | 0 mm | - | 94 W/m² | - |
| 1778163279 | 10° C | 73% | 1022.3 hPa | 0 mm | - | 74 W/m² | - |
| 1778162976 | 9.44° C | 76% | 1022.2 hPa | 0 mm | - | 53 W/m² | - |
| 1778162673 | 9.44° C | 80% | 1022 hPa | 0 mm | - | 46 W/m² | - |
| 1778162371 | 8.89° C | 80% | 1022.2 hPa | 0 mm | - | 43 W/m² | - |
| 1778162067 | 7.78° C | 81% | 1022.2 hPa | 0 mm | - | 34 W/m² | - |
| 1778161765 | 7.22° C | 84% | 1022.3 hPa | 0 mm | - | 33 W/m² | - |
* Rain latest hour (hover to see other rain measurements)
** Current wind speed in m/s (hover to see current wind gust speed)